Погода в Зарзисе

Тунис     33°30′12″N   11°05′14″E
темп.,
°C
ветер,
м/с
пор.,
м/с
влажн.,
%
обл.,
%
осадки,
мм/ч
давл.,
гПа
погр.,
м
5 августа, чт
чт501:00+31ююв34443 0.0 101125
04:00+32ю56171 0.0 101051
07:00+32ссз34210 0.0 101291
10:00+36ссз44360 0.0 1013691
13:00+33ссв75570 0.0 1013535
16:00+31св76611 0.0 1011473
19:00+28всв66750 0.0 1011416
22:00+27в56800 0.0 1012326
6 августа, пт
пт601:00+27св45830 0.0 1011182
04:00+26ссв44820 0.0 101086
07:00+28св44690 0.0 1012380
10:00+31всв43520 0.0 1012593
13:00+33в43430 0.0 1011637
16:00+32всв77470 0.0 1009364
19:00+29всв68610 0.0 1009352
22:00+28в58710 0.0 1011264
7 августа, сб
сб701:00+27вюв46750 0.0 1010129
04:00+27юв45760 0.0 100983
07:00+29вюв46650 0.0 1010279
10:00+33вюв66450 0.0 1010469
13:00+34в77430 0.0 1009426
16:00+33в78460 0.0 1008313
19:00+29вюв812710 0.0 1008236
22:00+28вюв611740 0.0 1010246
8 августа, вс
вс801:00+27юв44780 0.0 100958
04:00+28вюв45770 0.0 100959
07:00+30юв24470 0.0 1010102
10:00+35в32330 0.0 1012406
13:00+38в54290 0.0 1012426
16:00+35в78400 0.0 1011257
19:00+30в711700 0.0 1012243
22:00+29вюв612730 0.0 1014229
9 августа, пн
пн901:00+28вюв59680 0.0 1014186
04:00+28вюв59690 0.0 1013141
07:00+29вюв59580 0.0 1015254
10:00+34вюв78350 0.0 1015368
13:00+36в77270 0.0 1015351
16:00+34в78330 0.0 1014299
19:00+29в69670 0.0 1015184
22:00+28в47770 0.0 1016156